�N����,����,�~����,�C��,���x,�C��,����,���ϕ���,�ő�u�ԕ���,�ő厞����,���˗�,�I�_���x,�n�����x,�ő啗���N��,DTYPE
"23/07/04","00:10",0.0,23.8,89.7,999.6,334.6,1.3,2.2,329.9,0.00,22.0,24.1,"00:04:40",1
"23/07/04","00:20",0.0,23.7,89.8,999.3,341.4,1.6,3.2,338.6,0.00,22.0,23.8,"00:11:04",1
"23/07/04","00:30",0.0,23.7,89.7,999.3,331.2,2.3,4.3,358.8,0.00,21.9,23.8,"00:28:24",1
"23/07/04","00:40",0.0,23.7,89.2,999.3,333.1,2.2,4.5,335.6,0.00,21.9,23.7,"00:33:36",1
"23/07/04","00:50",0.0,23.5,88.9,999.6,311.9,1.8,3.2,313.9,0.00,21.6,23.8,"00:47:04",1
"23/07/04","01:00",0.0,23.4,88.5,999.1,327.3,1.6,2.5,336.1,0.00,21.4,23.8,"00:55:52",1
"23/07/04","01:10",0.0,23.3,88.3,999.3,337.8,1.2,1.9,339.5,0.00,21.3,23.6,"01:01:04",1
"23/07/04","01:20",0.0,23.2,88.3,998.9,348.9,1.2,1.9,352.6,0.00,21.2,23.7,"01:16:00",1
"23/07/04","01:30",0.0,22.8,88.8,998.6,318.1,1.6,2.9,341.2,0.00,20.9,23.5,"01:24:40",1
"23/07/04","01:40",0.0,22.6,89.2,998.9,313.2,1.6,2.2,311.7,0.00,20.8,23.7,"01:32:16",1
"23/07/04","01:50",0.0,22.5,89.6,999.1,318.4,1.6,2.5,331.5,0.00,20.7,23.7,"01:42:40",1
"23/07/04","02:00",0.0,22.5,90.0,999.1,324.2,1.7,3.1,328.3,0.00,20.8,23.6,"01:58:24",1
"23/07/04","02:10",0.0,22.4,90.3,998.9,332.5,1.7,2.4,346.1,0.00,20.8,23.6,"02:04:48",1
"23/07/04","02:20",0.0,22.5,90.4,999.1,332.1,2.1,3.7,329.9,0.00,20.9,23.5,"02:12:56",1
"23/07/04","02:30",0.0,22.5,90.4,998.9,333.0,1.8,3.1,348.6,0.00,20.9,23.7,"02:26:40",1
"23/07/04","02:40",0.0,22.4,90.4,999.3,341.3,1.8,2.8,350.6,0.00,20.8,23.6,"02:36:32",1
"23/07/04","02:50",0.0,22.3,90.4,999.1,338.9,1.7,3.4,345.0,0.00,20.7,23.4,"02:46:16",1
"23/07/04","03:00",0.0,22.2,90.5,999.1,336.7,1.8,2.7,333.9,0.00,20.6,23.5,"02:52:00",1
"23/07/04","03:10",0.0,22.3,90.7,999.1,333.4,2.1,4.0,337.9,0.00,20.7,23.4,"03:02:56",1
"23/07/04","03:20",0.0,22.3,90.6,999.3,330.1,2.2,3.6,333.0,0.00,20.7,23.4,"03:15:52",1
"23/07/04","03:30",0.0,22.3,90.5,999.1,331.4,1.7,2.9,321.1,0.00,20.7,23.3,"03:20:48",1
"23/07/04","03:40",0.0,22.0,90.7,998.9,335.7,1.8,2.9,343.0,0.00,20.4,23.6,"03:38:08",1
"23/07/04","03:50",0.0,22.0,90.9,998.6,320.2,1.8,3.5,326.8,0.00,20.5,23.4,"03:47:12",1
"23/07/04","04:00",0.0,21.8,91.0,998.6,333.4,1.5,2.2,338.6,0.00,20.3,23.3,"03:55:28",1
"23/07/04","04:10",0.0,21.6,91.2,998.9,325.4,1.7,3.2,319.2,0.00,20.1,23.3,"04:01:28",1
"23/07/04","04:20",0.0,21.5,91.4,998.9,331.5,1.7,2.4,340.9,0.00,20.1,23.3,"04:12:32",1
"23/07/04","04:30",0.0,21.3,91.7,998.6,331.9,1.8,2.6,334.5,0.00,19.9,23.2,"04:26:56",1
"23/07/04","04:40",0.0,21.5,91.8,998.6,328.5,2.6,3.7,336.0,0.00,20.2,23.2,"04:34:32",1
"23/07/04","04:50",0.0,21.5,91.7,998.6,326.8,2.0,3.6,332.8,0.00,20.1,23.0,"04:41:04",1
"23/07/04","05:00",0.0,21.2,91.8,998.9,336.1,1.6,2.8,347.3,0.00,19.9,23.1,"04:58:24",1
"23/07/04","05:10",0.0,21.1,92.0,998.9,337.4,1.6,2.9,344.5,0.00,19.8,23.2,"05:04:16",1
"23/07/04","05:20",0.0,21.3,92.2,999.1,336.3,1.8,3.4,329.6,0.00,20.0,23.4,"05:19:36",1
"23/07/04","05:30",0.0,21.3,92.1,999.3,336.3,2.5,4.2,342.2,0.00,20.0,23.1,"05:23:12",1
"23/07/04","05:40",0.0,21.2,92.1,999.1,332.8,2.3,5.0,345.5,0.00,19.9,23.1,"05:33:36",1
"23/07/04","05:50",0.0,21.2,92.1,999.8,334.5,2.0,3.5,345.4,0.00,19.9,23.0,"05:46:16",1
"23/07/04","06:00",0.0,21.3,92.0,999.8,337.3,2.2,4.2,344.9,0.00,20.0,23.1,"05:54:24",1
"23/07/04","06:10",0.0,21.3,91.9,999.6,337.4,2.2,4.0,348.9,0.00,20.0,23.0,"06:09:28",1
"23/07/04","06:20",0.0,21.4,91.7,1000.0,334.5,2.0,4.4,344.8,0.00,20.0,23.0,"06:10:32",1
"23/07/04","06:30",0.0,21.4,91.6,1000.0,338.3,2.1,3.3,338.7,0.00,20.0,23.0,"06:22:24",1
"23/07/04","06:40",0.0,21.6,91.5,1000.3,326.9,1.6,2.9,340.5,0.02,20.2,22.8,"06:38:00",1
"23/07/04","06:50",0.0,21.9,91.1,1000.3,325.4,1.8,2.9,351.0,0.03,20.4,23.0,"06:46:56",1
"23/07/04","07:00",0.0,22.3,90.4,1000.3,323.1,1.8,3.3,349.8,0.04,20.7,22.9,"06:54:16",1
"23/07/04","07:10",0.0,22.7,89.3,1000.3,341.2,1.8,3.5,345.8,0.06,20.9,23.0,"07:04:16",1
"23/07/04","07:20",0.0,23.3,88.3,1000.8,341.1,1.7,4.0,345.5,0.07,21.3,22.7,"07:11:44",1
"23/07/04","07:30",0.0,23.7,86.7,1000.3,322.0,1.2,2.6,344.3,0.09,21.4,22.9,"07:20:08",1
"23/07/04","07:40",0.0,24.2,84.9,1000.8,328.6,1.3,2.7,350.2,0.11,21.5,22.9,"07:30:02",1
"23/07/04","07:50",0.0,24.7,82.6,1000.5,333.1,1.1,2.4,329.9,0.13,21.6,22.7,"07:44:24",1
"23/07/04","08:00",0.0,25.4,80.3,1000.3,309.2,0.7,2.1,337.0,0.15,21.8,22.9,"07:54:48",1
"23/07/04","08:10",0.0,25.9,77.5,1000.3,251.4,0.7,2.0,353.0,0.18,21.7,23.0,"08:05:04",1
"23/07/04","08:20",0.0,26.5,74.7,999.8,49.7,0.8,2.0,41.4,0.20,21.7,22.8,"08:14:48",1
"23/07/04","08:30",0.0,27.1,71.4,999.8,25.7,1.0,2.5,31.7,0.22,21.5,22.8,"08:29:04",1
"23/07/04","08:40",0.0,28.0,69.7,999.1,43.2,0.5,1.8,356.3,0.24,22.0,22.9,"08:30:56",1
"23/07/04","08:50",0.0,28.0,68.0,999.8,350.0,0.6,1.8,214.0,0.27,21.6,22.9,"08:40:48",1
"23/07/04","09:00",0.0,28.6,66.6,999.6,50.7,0.7,2.2,347.7,0.29,21.8,22.7,"08:54:08",1
"23/07/04","09:10",0.0,28.9,64.5,1000.3,35.0,0.7,1.9,12.9,0.31,21.6,22.7,"09:07:44",1
"23/07/04","09:20",0.0,28.2,65.6,999.8,2.1,1.2,2.8,351.8,0.33,21.2,22.7,"09:12:24",1
"23/07/04","09:30",0.0,28.3,64.4,1000.0,354.3,0.8,2.6,343.6,0.35,21.0,22.7,"09:25:12",1
"23/07/04","09:40",0.0,29.1,64.1,1000.0,96.7,1.0,2.2,355.7,0.37,21.7,22.9,"09:32:16",1
"23/07/04","09:50",0.0,28.7,64.4,1000.3,172.1,1.2,2.8,204.4,0.39,21.4,23.0,"09:47:52",1
"23/07/04","10:00",0.0,29.3,64.3,1000.3,145.0,0.7,1.8,116.7,0.41,21.9,22.9,"09:53:20",1
"23/07/04","10:10",0.0,29.8,63.9,1000.3,110.2,1.0,3.1,149.5,0.43,22.3,23.2,"10:06:48",1
"23/07/04","10:20",0.0,30.2,62.8,1000.8,152.0,0.5,1.8,119.7,0.44,22.4,22.9,"10:19:20",1
"23/07/04","10:30",0.0,30.7,60.5,1000.5,52.3,0.7,1.9,17.7,0.46,22.2,23.1,"10:21:12",1
"23/07/04","10:40",0.0,30.3,60.6,1000.3,142.3,1.2,2.8,214.4,0.47,21.9,23.3,"10:31:04",1
"23/07/04","10:50",0.0,30.2,61.7,1000.3,164.1,1.3,2.9,119.0,0.49,22.1,23.3,"10:46:08",1
"23/07/04","11:00",0.0,30.5,57.2,1000.3,81.4,0.8,2.2,116.6,0.50,21.1,23.6,"10:51:20",1
"23/07/04","11:10",0.0,30.8,58.7,1000.3,333.8,0.8,1.9,354.1,0.51,21.8,23.4,"11:01:52",1
"23/07/04","11:20",0.0,31.0,57.0,999.6,27.9,1.2,3.1,37.7,0.52,21.5,23.3,"11:13:36",1
"23/07/04","11:30",0.0,31.6,56.1,999.6,14.5,0.8,1.9,2.4,0.53,21.8,23.5,"11:20:08",1
"23/07/04","11:40",0.0,31.3,55.0,999.3,321.0,1.0,3.5,333.1,0.54,21.2,23.7,"11:39:44",1
"23/07/04","11:50",0.0,30.9,55.9,999.3,337.7,1.3,2.8,341.8,0.54,21.1,23.9,"11:45:04",1
"23/07/04","12:00",0.0,31.3,56.3,999.1,349.1,1.2,2.4,333.8,0.55,21.6,23.8,"11:51:28",1
"23/07/04","12:10",0.0,31.7,55.8,999.1,352.5,1.1,2.6,351.7,0.55,21.8,24.1,"12:05:36",1
"23/07/04","12:20",0.0,31.6,55.4,998.6,336.9,1.3,2.9,352.2,0.56,21.6,24.1,"12:15:12",1
"23/07/04","12:30",0.0,32.5,53.9,998.9,359.0,0.8,2.0,358.7,0.56,22.0,24.1,"12:21:20",1
"23/07/04","12:40",0.0,33.2,51.7,998.9,69.8,0.7,2.0,33.1,0.56,22.0,24.3,"12:37:20",1
"23/07/04","12:50",0.0,33.5,52.1,999.1,52.5,0.8,2.4,348.3,0.56,22.4,24.6,"12:43:20",1
"23/07/04","13:00",0.0,33.6,51.7,998.6,79.1,0.8,2.0,314.8,0.56,22.3,24.6,"12:52:40",1
"23/07/04","13:10",0.0,33.9,53.3,998.9,138.9,1.0,2.2,135.0,0.56,23.1,24.4,"13:05:04",1
"23/07/04","13:20",0.0,33.2,51.2,998.9,199.3,2.1,4.1,217.4,0.56,21.8,24.7,"13:17:12",1
"23/07/04","13:30",0.0,33.6,50.8,998.6,181.9,1.2,2.6,201.8,0.55,22.0,24.5,"13:25:20",1
"23/07/04","13:40",0.0,33.6,49.1,998.6,201.8,1.8,4.1,198.0,0.54,21.5,24.6,"13:38:24",1
"23/07/04","13:50",0.0,34.1,53.0,998.6,204.0,1.5,4.8,222.5,0.53,23.2,24.8,"13:42:00",1
"23/07/04","14:00",0.0,34.1,49.9,998.6,255.1,1.5,3.2,239.1,0.53,22.2,24.7,"13:50:02",1
"23/07/04","14:10",0.0,33.8,50.6,998.6,246.1,1.6,3.7,218.7,0.46,22.2,24.8,"14:05:28",1
"23/07/04","14:20",0.0,33.9,50.1,998.2,209.5,1.6,3.6,222.6,0.52,22.1,25.0,"14:18:48",1
"23/07/04","14:30",0.0,34.4,51.5,998.2,282.1,1.2,2.8,227.3,0.51,23.0,25.0,"14:26:00",1
"23/07/04","14:40",0.0,34.6,51.5,998.2,250.7,1.2,3.3,239.8,0.49,23.2,25.2,"14:32:56",1
"23/07/04","14:50",0.0,34.5,51.3,997.9,290.0,1.7,3.6,316.8,0.46,23.0,25.3,"14:48:00",1
"23/07/04","15:00",0.0,34.8,52.7,998.2,279.3,1.2,4.4,328.1,0.43,23.7,25.3,"14:58:56",1
"23/07/04","15:10",0.0,34.5,51.1,997.7,314.4,1.5,4.1,338.8,0.43,23.0,25.1,"15:02:32",1
"23/07/04","15:20",0.0,35.0,49.5,997.7,276.6,1.3,4.7,351.9,0.45,22.9,25.2,"15:18:08",1
"23/07/04","15:30",0.0,35.2,47.9,997.7,225.5,1.5,3.9,223.0,0.43,22.5,25.3,"15:26:16",1
"23/07/04","15:40",0.0,35.0,46.9,997.2,223.9,2.1,5.1,209.7,0.38,22.0,25.4,"15:35:36",1
"23/07/04","15:50",0.0,35.0,45.3,997.4,234.6,2.2,4.8,239.5,0.38,21.4,25.5,"15:47:52",1
"23/07/04","16:00",0.0,34.6,44.8,997.2,242.7,1.8,3.3,252.6,0.27,20.9,25.6,"15:54:40",1
"23/07/04","16:10",0.0,34.8,44.8,997.0,238.7,1.7,4.1,220.9,0.26,21.1,25.4,"16:05:12",1
"23/07/04","16:20",0.0,35.2,44.4,997.0,228.0,2.2,5.0,219.7,0.33,21.3,25.4,"16:12:08",1
"23/07/04","16:30",0.0,35.1,43.0,997.2,252.3,1.8,4.8,224.3,0.28,20.7,25.4,"16:27:28",1
"23/07/04","16:40",0.0,35.1,42.5,997.0,264.9,1.6,3.5,332.0,0.29,20.5,25.6,"16:34:32",1
"23/07/04","16:50",0.0,35.3,40.5,997.0,248.6,1.8,3.4,227.8,0.28,19.9,25.8,"16:44:16",1
"23/07/04","17:00",0.0,35.1,42.4,997.0,245.0,1.2,2.8,243.6,0.19,20.5,25.6,"16:55:04",1
"23/07/04","17:10",0.0,34.2,44.3,996.5,258.8,1.6,3.4,243.0,0.07,20.4,25.7,"17:06:40",1
"23/07/04","17:20",0.0,34.1,44.8,996.5,245.3,1.6,3.1,243.0,0.14,20.4,25.9,"17:15:36",1
"23/07/04","17:30",0.0,34.1,45.8,996.3,274.7,1.3,3.2,269.5,0.12,20.8,25.7,"17:26:24",1
"23/07/04","17:40",0.0,34.2,47.7,996.0,280.5,1.1,2.7,341.5,0.15,21.6,25.4,"17:36:00",1
"23/07/04","17:50",0.0,34.0,48.3,996.5,314.2,1.3,3.1,315.4,0.09,21.6,25.5,"17:43:36",1
"23/07/04","18:00",0.0,33.5,51.7,996.0,331.0,1.7,3.3,334.2,0.06,22.2,25.6,"17:51:52",1
"23/07/04","18:10",0.0,33.8,53.4,996.3,334.7,1.2,2.6,347.8,0.08,23.0,25.5,"18:09:12",1
"23/07/04","18:20",0.0,33.8,53.0,996.3,346.4,1.1,2.2,348.9,0.06,22.9,25.7,"18:12:00",1
"23/07/04","18:30",0.0,33.6,55.2,996.5,345.3,0.8,2.1,354.5,0.05,23.4,25.6,"18:21:20",1
"23/07/04","18:40",0.0,33.1,55.3,996.0,319.9,0.7,2.0,321.7,0.04,23.0,25.7,"18:35:52",1
"23/07/04","18:50",0.0,32.6,55.8,996.0,322.9,1.3,2.9,349.8,0.05,22.7,25.7,"18:46:40",1
"23/07/04","19:00",0.0,32.4,58.5,996.0,333.8,1.1,1.8,352.3,0.03,23.3,25.6,"18:54:56",1
"23/07/04","19:10",0.0,31.9,60.4,996.0,315.2,1.0,2.9,351.2,0.02,23.3,25.7,"19:02:08",1
"23/07/04","19:20",0.0,31.5,61.3,996.0,283.1,0.7,2.0,240.4,0.02,23.2,25.6,"19:17:20",1
"23/07/04","19:30",0.0,31.2,62.2,996.0,301.2,0.7,1.3,338.6,0.01,23.1,25.8,"19:24:56",1
"23/07/04","19:40",0.0,30.8,63.9,995.6,352.3,0.8,1.3,350.1,0.00,23.2,25.6,"19:35:36",1
"23/07/04","19:50",0.0,30.4,66.0,995.1,5.7,0.8,1.6,346.5,0.00,23.4,25.7,"19:40:16",1
"23/07/04","20:00",0.0,29.9,68.3,994.8,359.0,0.8,1.7,8.8,0.00,23.5,25.4,"19:51:36",1
"23/07/04","20:10",0.0,29.1,70.6,994.8,316.4,0.8,1.6,333.4,0.00,23.2,25.5,"20:08:32",1
"23/07/04","20:20",0.0,28.6,72.4,995.1,304.0,0.8,2.0,320.0,0.00,23.2,25.5,"20:11:04",1
"23/07/04","20:30",0.0,28.3,74.0,995.3,325.2,1.1,2.0,335.7,0.00,23.3,25.5,"20:24:56",1
"23/07/04","20:40",0.0,27.8,75.2,995.6,306.5,0.8,2.1,305.7,0.00,23.0,25.4,"20:38:48",1
"23/07/04","20:50",0.0,27.6,75.3,996.0,313.2,1.2,2.4,330.9,0.00,22.9,25.4,"20:47:20",1
"23/07/04","21:00",0.0,27.5,75.2,996.3,329.0,1.3,2.8,343.4,0.00,22.8,25.5,"20:59:52",1
"23/07/04","21:10",0.0,27.3,76.0,996.5,356.6,0.8,1.9,2.9,0.00,22.7,25.4,"21:04:40",1
"23/07/04","21:20",0.0,26.9,77.1,996.5,350.3,1.0,1.8,340.6,0.00,22.6,25.5,"21:12:24",1
"23/07/04","21:30",0.0,26.6,77.9,997.0,332.2,1.2,2.5,342.3,0.00,22.5,25.2,"21:20:02",1
"23/07/04","21:40",0.0,26.5,78.0,997.0,291.9,0.8,2.1,331.4,0.00,22.4,25.3,"21:30:08",1
"23/07/04","21:50",0.0,26.6,77.7,997.0,316.0,1.5,2.7,351.8,0.00,22.4,25.1,"21:48:16",1
"23/07/04","22:00",0.0,26.3,78.1,997.2,323.0,1.0,2.4,309.3,0.00,22.2,25.0,"21:51:20",1
"23/07/04","22:10",0.0,26.0,78.8,997.2,318.3,1.0,2.0,325.0,0.00,22.1,25.2,"22:09:36",1
"23/07/04","22:20",0.0,25.8,78.8,997.2,308.8,1.1,1.9,254.9,0.00,21.9,24.9,"22:10:56",1
"23/07/04","22:30",0.0,25.6,78.0,997.4,319.3,0.8,1.7,342.6,0.00,21.5,25.1,"22:22:32",1
"23/07/04","22:40",0.0,25.6,76.1,997.7,337.8,0.7,1.8,345.4,0.00,21.1,24.8,"22:38:56",1
"23/07/04","22:50",0.0,26.2,73.1,997.7,6.9,1.0,2.6,358.2,0.00,21.0,24.8,"22:46:16",1
"23/07/04","23:00",0.0,26.5,71.0,997.7,8.0,1.0,1.9,13.3,0.00,20.9,24.9,"22:56:00",1
"23/07/04","23:10",0.0,26.6,70.6,997.4,355.8,1.2,2.5,354.2,0.00,20.9,24.8,"23:05:48",1
"23/07/04","23:20",0.0,26.5,71.5,997.7,355.0,0.8,2.4,353.7,0.00,21.0,24.8,"23:16:40",1
"23/07/04","23:30",0.0,26.1,73.3,997.7,352.2,1.0,2.5,353.6,0.00,21.0,24.7,"23:29:20",1
"23/07/04","23:40",0.0,25.3,76.1,997.4,341.1,1.1,2.0,343.3,0.00,20.8,24.8,"23:38:24",1
"23/07/04","23:50",0.0,24.8,78.1,997.7,4.4,0.6,1.1,5.0,0.00,20.8,24.7,"23:48:48",1
"23/07/04","24:00",0.0,24.6,79.7,997.7,345.0,1.0,1.7,330.5,0.00,20.9,24.5,"23:52:48",1
